千帆星座-48 (QIANFAN-48)

导读

QIANFAN-48 是中国北斗卫星导航系统的一部分,属于北斗三号工程的组网卫星。该卫星于2023年成功发射,主要用于提供高精度定位、导航和授时服务,增强系统在全球范围内的覆盖与稳定性。QIANFAN-48 采用先进技术和国产化设备,提升了系统的自主可控能力,广泛服务于交通、农业、通信、应急救援等多个领域,推动了我国卫星导航产业的发展和国际化进程。

基本信息
目录编号:
62249
目录名称:
QIANFAN-48
国际标识:
2024-232N
轨道中心:
EARTH
卫星名称:
千帆星座-48
卫星全名:
千帆星座-48 (QIANFAN-48)
卫星状态:
在轨 (已飞行645 天)
发射日期:
2024-12-05 UTC
国别 :
中国 (CN)
星等 :
--
该卫星已列入 空间交会检测服务 Space Conjunction Data Service (SCDS) ,当前飞行风险评估等级: 无高风险
轨道信息
数据来源 国际轨道数据 AOE轨道数据
星历时间 2026-09-11T05:15:50+0800
9小时前
查看轨道信息
2026-09-07T04:00:00+0800
4天前
查看轨道信息
半长轴 7446.639km 7446.642km
偏心率 0.0018804 0.0018651
轨道倾角 89.015° 89.015°
近地点辐角 131.381° 142.234°
升交点赤经 13.909° 14.312°
平近点角 228.896° 318.902°
近地点 1054.499km 1054.616km
远地点 1082.505km 1082.394km
周期 106.586分钟 106.586分钟
每日圈数 13.510218 13.51021
详细信息
卫星平台:
48
覆盖范围:
全球
运营商:
上海垣信卫星科技有限公司
运营商所在国:
中国
使用方式:
暂无
卫星简介
千帆星座,也被称为“G60星链”计划,是中国版“星链”的重要组成部分,旨在打造一个由1.4万多颗低轨宽频多媒体卫星构成的庞大星座。千帆星座计划由上海垣信卫星科技有限公司负责实施,于2023年启动建设。该项目是我国第二个低轨卫星大星座,旨在通过构建庞大的卫星网络,为全球用户提供高质量的通信和宽带互联网服务。
2D轨道图
3D轨道图
轨道高度分析图
轨道倾角分析图
轨道综合分析图
查看轨道综合分析图
交会数据列表
事件ID 空间交会对象 最接近时刻(TCA) 交会距离 交会风险概率(CRP) 交会风险指数(CRI) 操作
CDM_260912-130100-468606-224922
2026-09-12T
13:01:57+0000
1.462 km
极远距离
2.042576E-6 低风险 0.41
与全量物体交会距离演化趋势
与全量物体交会风险概率演化趋势